Time,TemperatureF,DewpointF,PressureIn,WindDirection,WindDirectionDegrees,WindSpeedMPH,WindSpeedGustMPH,Humidity,HourlyPrecipIn,Conditions,Clouds,dailyrainin,SoftwareType,DateUTC
2013-05-03 08:52:00,32.3,24.6,30.36,NNE,13,12.0,20.0,73,0.00,,,0.00,VWS V12.08,2013-05-03 13:52:00,
2013-05-03 08:53:00,32.3,24.6,30.36,NNE,26,16.0,20.0,73,0.00,,,0.00,VWS V12.08,2013-05-03 13:53:00,
2013-05-03 08:58:00,32.4,24.7,30.36,North,11,9.0,20.0,73,0.00,,,0.00,VWS V12.08,2013-05-03 13:58:00,
2013-05-03 09:03:00,32.7,25.0,30.36,ENE,61,12.0,15.0,73,0.00,,,0.00,VWS V12.08,2013-05-03 14:03:00,
2013-05-03 09:08:00,33.1,25.1,30.36,NNW,340,7.0,18.0,72,0.00,,,0.00,VWS V12.08,2013-05-03 14:08:00,
2013-05-03 09:13:00,33.3,25.3,30.36,SSE,161,7.0,19.0,72,0.00,,,0.00,VWS V12.08,2013-05-03 14:13:00,
2013-05-03 09:18:00,33.5,24.8,30.36,NNE,31,17.0,20.0,70,0.00,,,0.00,VWS V12.08,2013-05-03 14:18:00,
2013-05-03 09:23:00,33.9,25.5,30.36,NNE,27,10.0,20.0,71,0.00,,,0.00,VWS V12.08,2013-05-03 14:23:00,
2013-05-03 09:28:00,34.3,25.2,30.36,NNE,31,5.0,20.0,69,0.00,,,0.00,VWS V12.08,2013-05-03 14:28:00,
2013-05-03 09:33:00,34.2,25.1,30.36,NE,43,17.0,19.0,69,0.00,,,0.00,VWS V12.08,2013-05-03 14:33:00,
2013-05-03 09:38:00,34.6,25.1,30.36,NNE,24,13.0,19.0,68,0.00,,,0.00,VWS V12.08,2013-05-03 14:38:00,
2013-05-03 09:43:00,34.9,25.4,30.35,NNE,13,11.0,19.0,68,0.00,,,0.00,VWS V12.08,2013-05-03 14:43:00,
2013-05-03 09:48:00,35.2,25.7,30.35,NNE,28,7.0,19.0,68,0.00,,,0.00,VWS V12.08,2013-05-03 14:48:00,
2013-05-03 09:52:00,35.3,24.7,30.35,NNE,15,15.0,23.0,65,0.00,,,0.00,VWS V12.08,2013-05-03 14:52:00,
2013-05-03 09:57:00,35.1,24.5,30.35,NNW,341,9.0,23.0,65,0.00,,,0.00,VWS V12.08,2013-05-03 14:57:00,
2013-05-03 10:02:00,35.1,24.5,30.34,NNE,24,18.0,20.0,65,0.00,,,0.00,VWS V12.08,2013-05-03 15:02:00,
2013-05-03 10:07:00,35.4,25.2,30.34,NNW,335,16.0,24.0,66,0.00,,,0.00,VWS V12.08,2013-05-03 15:07:00,
2013-05-03 10:12:00,35.6,25.0,30.34,NNE,24,9.0,24.0,65,0.00,,,0.00,VWS V12.08,2013-05-03 15:12:00,
2013-05-03 10:17:00,35.7,24.7,30.34,NNW,330,7.0,24.0,64,0.00,,,0.00,VWS V12.08,2013-05-03 15:17:00,
2013-05-03 10:22:00,36.1,24.7,30.33,SE,137,6.0,24.0,63,0.00,,,0.00,VWS V12.08,2013-05-03 15:22:00,
2013-05-03 10:27:00,36.4,25.4,30.33,NW,307,14.0,24.0,64,0.00,,,0.00,VWS V12.08,2013-05-03 15:27:00,
2013-05-03 10:32:00,36.6,25.2,30.33,NNW,332,16.0,22.0,63,0.00,,,0.00,VWS V12.08,2013-05-03 15:32:00,
2013-05-03 10:37:00,36.4,25.0,30.33,SW,230,13.0,22.0,63,0.00,,,0.00,VWS V12.08,2013-05-03 15:37:00,
2013-05-03 10:42:00,37.0,25.2,30.33,NNE,19,9.0,22.0,62,0.00,,,0.00,VWS V12.08,2013-05-03 15:42:00,
2013-05-03 10:47:00,37.4,25.2,30.32,NNE,32,6.0,22.0,61,0.00,,,0.00,VWS V12.08,2013-05-03 15:47:00,
2013-05-03 10:52:00,37.7,25.5,30.33,North,5,17.0,22.0,61,0.00,,,0.00,VWS V12.08,2013-05-03 15:52:00,
2013-05-03 10:57:00,38.2,26.0,30.32,NNW,348,10.0,22.0,61,0.00,,,0.00,VWS V12.08,2013-05-03 15:57:00,
2013-05-03 11:02:00,38.5,25.0,30.31,SSE,152,6.0,21.0,58,0.00,,,0.00,VWS V12.08,2013-05-03 16:02:00,
2013-05-03 11:07:00,38.7,25.2,30.31,NNW,344,17.0,21.0,58,0.00,,,0.00,VWS V12.08,2013-05-03 16:07:00,
2013-05-03 11:12:00,38.8,24.9,30.31,NNW,335,17.0,22.0,57,0.00,,,0.00,VWS V12.08,2013-05-03 16:12:00,
2013-05-03 11:17:00,38.9,25.8,30.31,NNE,23,6.0,22.0,59,0.00,,,0.00,VWS V12.08,2013-05-03 16:17:00,
2013-05-03 11:22:00,39.3,24.9,30.31,NNE,16,19.0,22.0,56,0.00,,,0.00,VWS V12.08,2013-05-03 16:22:00,
2013-05-03 11:27:00,39.1,25.2,30.30,NNE,22,6.0,22.0,57,0.00,,,0.00,VWS V12.08,2013-05-03 16:27:00,
2013-05-03 11:32:00,39.6,26.1,30.30,NNW,346,21.0,21.0,58,0.00,,,0.00,VWS V12.08,2013-05-03 16:32:00,
2013-05-03 11:37:00,40.0,25.6,30.30,NNE,24,15.0,21.0,56,0.00,,,0.00,VWS V12.08,2013-05-03 16:37:00,
2013-05-03 11:42:00,39.7,24.9,30.29,NNW,344,10.0,21.0,55,0.00,,,0.00,VWS V12.08,2013-05-03 16:42:00,
2013-05-03 11:47:00,40.3,25.9,30.28,NW,325,7.0,22.0,56,0.00,,,0.00,VWS V12.08,2013-05-03 16:47:00,
2013-05-03 11:52:00,40.9,25.5,30.28,NNE,13,27.0,27.0,54,0.00,,,0.00,VWS V12.08,2013-05-03 16:52:00,
2013-05-03 11:57:00,40.9,25.5,30.28,NNW,327,10.0,27.0,54,0.00,,,0.00,VWS V12.08,2013-05-03 16:57:00,
2013-05-03 12:02:00,40.8,25.0,30.27,NE,43,15.0,22.0,53,0.00,,,0.00,VWS V12.08,2013-05-03 17:02:00,
2013-05-03 12:07:00,41.1,26.2,30.27,WNW,298,7.0,25.0,55,0.00,,,0.00,VWS V12.08,2013-05-03 17:07:00,
2013-05-03 12:12:00,41.5,26.1,30.27,NNE,15,19.0,25.0,54,0.00,,,0.00,VWS V12.08,2013-05-03 17:12:00,
2013-05-03 12:17:00,41.7,26.3,30.27,NNW,344,14.0,25.0,54,0.00,,,0.00,VWS V12.08,2013-05-03 17:17:00,
2013-05-03 12:22:00,41.9,26.0,30.27,NNE,12,9.0,25.0,53,0.00,,,0.00,VWS V12.08,2013-05-03 17:22:00,
2013-05-03 12:27:00,42.2,25.9,30.27,NW,322,10.0,29.0,52,0.00,,,0.00,VWS V12.08,2013-05-03 17:27:00,
2013-05-03 12:32:00,42.5,25.7,30.26,North,5,18.0,25.0,51,0.00,,,0.00,VWS V12.08,2013-05-03 17:32:00,
2013-05-03 12:37:00,42.7,26.3,30.26,East,84,6.0,25.0,52,0.00,,,0.00,VWS V12.08,2013-05-03 17:37:00,
2013-05-03 12:42:00,42.6,25.8,30.26,NNW,340,15.0,25.0,51,0.00,,,0.00,VWS V12.08,2013-05-03 17:42:00,
2013-05-03 12:47:00,42.8,25.5,30.25,ENE,76,16.0,27.0,50,0.00,,,0.00,VWS V12.08,2013-05-03 17:47:00,
2013-05-03 12:52:00,42.7,25.9,30.26,North,350,17.0,27.0,51,0.00,,,0.00,VWS V12.08,2013-05-03 17:52:00,
2013-05-03 12:57:00,43.1,25.7,30.25,West,275,9.0,27.0,50,0.00,,,0.00,VWS V12.08,2013-05-03 17:57:00,
2013-05-03 13:02:00,43.5,26.6,30.25,NNE,30,9.0,17.0,51,0.00,,,0.00,VWS V12.08,2013-05-03 18:02:00,
2013-05-03 13:07:00,43.6,25.2,30.24,NNW,348,13.0,22.0,48,0.00,,,0.00,VWS V12.08,2013-05-03 18:07:00,
2013-05-03 13:12:00,43.9,25.5,30.25,NNE,15,3.0,25.0,48,0.00,,,0.00,VWS V12.08,2013-05-03 18:12:00,
2013-05-03 13:17:00,44.3,25.9,30.24,NW,319,17.0,25.0,48,0.00,,,0.00,VWS V12.08,2013-05-03 18:17:00,
2013-05-03 13:22:00,44.5,25.5,30.24,NNE,31,18.0,25.0,47,0.00,,,0.00,VWS V12.08,2013-05-03 18:22:00,
2013-05-03 13:27:00,44.6,25.6,30.24,NE,54,9.0,29.0,47,0.00,,,0.00,VWS V12.08,2013-05-03 18:27:00,
2013-05-03 13:32:00,44.9,25.4,30.24,NE,51,13.0,28.0,46,0.00,,,0.00,VWS V12.08,2013-05-03 18:32:00,
2013-05-03 13:37:00,44.6,25.6,30.24,NE,44,9.0,28.0,47,0.00,,,0.00,VWS V12.08,2013-05-03 18:37:00,
2013-05-03 13:42:00,45.1,24.5,30.23,NNE,16,19.0,28.0,44,0.00,,,0.00,VWS V12.08,2013-05-03 18:42:00,
2013-05-03 13:47:00,45.2,25.1,30.23,NW,326,11.0,28.0,45,0.00,,,0.00,VWS V12.08,2013-05-03 18:47:00,
2013-05-03 13:52:00,45.7,25.6,30.22,NNE,28,10.0,28.0,45,0.00,,,0.00,VWS V12.08,2013-05-03 18:52:00,
2013-05-03 13:57:00,46.0,24.8,30.22,WNW,288,7.0,28.0,43,0.00,,,0.00,VWS V12.08,2013-05-03 18:57:00,
2013-05-03 14:02:00,46.5,25.8,30.22,NNW,344,18.0,30.0,44,0.00,,,0.00,VWS V12.08,2013-05-03 19:02:00,
2013-05-03 14:07:00,46.1,24.3,30.22,NNW,340,12.0,30.0,42,0.00,,,0.00,VWS V12.08,2013-05-03 19:07:00,
2013-05-03 14:12:00,45.9,24.1,30.22,NNE,23,13.0,30.0,42,0.00,,,0.00,VWS V12.08,2013-05-03 19:12:00,
2013-05-03 14:17:00,46.2,25.0,30.21,NW,318,14.0,30.0,43,0.00,,,0.00,VWS V12.08,2013-05-03 19:17:00,
2013-05-03 14:22:00,46.4,24.0,30.21,North,351,15.0,31.0,41,0.00,,,0.00,VWS V12.08,2013-05-03 19:22:00,
2013-05-03 14:27:00,46.9,25.0,30.21,NNE,15,16.0,31.0,42,0.00,,,0.00,VWS V12.08,2013-05-03 19:27:00,
2013-05-03 14:32:00,47.2,24.7,30.21,North,351,13.0,22.0,41,0.00,,,0.00,VWS V12.08,2013-05-03 19:32:00,
2013-05-03 14:37:00,47.2,25.3,30.21,North,5,13.0,26.0,42,0.00,,,0.00,VWS V12.08,2013-05-03 19:37:00,
2013-05-03 14:42:00,47.4,24.3,30.21,North,11,14.0,26.0,40,0.00,,,0.00,VWS V12.08,2013-05-03 19:42:00,
2013-05-03 14:47:00,48.0,24.9,30.21,North,355,9.0,26.0,40,0.00,,,0.00,VWS V12.08,2013-05-03 19:47:00,
2013-05-03 14:52:00,48.2,25.0,30.20,NNW,327,19.0,26.0,40,0.00,,,0.00,VWS V12.08,2013-05-03 19:52:00,
2013-05-03 14:57:00,48.4,23.3,30.20,NE,55,4.0,26.0,37,0.00,,,0.00,VWS V12.08,2013-05-03 19:57:00,
2013-05-03 15:02:00,47.8,23.4,30.20,North,5,9.0,24.0,38,0.00,,,0.00,VWS V12.08,2013-05-03 20:02:00,
2013-05-03 15:07:00,47.9,24.1,30.20,NE,39,10.0,28.0,39,0.00,,,0.00,VWS V12.08,2013-05-03 20:07:00,
2013-05-03 15:12:00,48.0,24.2,30.20,NNW,344,11.0,28.0,39,0.00,,,0.00,VWS V12.08,2013-05-03 20:12:00,
2013-05-03 15:17:00,47.9,23.5,30.20,NNW,342,7.0,29.0,38,0.00,,,0.00,VWS V12.08,2013-05-03 20:17:00,
2013-05-03 15:22:00,48.2,23.8,30.20,NNW,348,7.0,29.0,38,0.00,,,0.00,VWS V12.08,2013-05-03 20:22:00,
2013-05-03 15:27:00,48.5,23.4,30.19,NNE,31,24.0,29.0,37,0.00,,,0.00,VWS V12.08,2013-05-03 20:27:00,
2013-05-03 15:32:00,48.0,23.0,30.19,NE,34,23.0,23.0,37,0.00,,,0.00,VWS V12.08,2013-05-03 20:32:00,
2013-05-03 15:37:00,47.9,22.9,30.19,NW,323,11.0,27.0,37,0.00,,,0.00,VWS V12.08,2013-05-03 20:37:00,
2013-05-03 15:42:00,47.8,22.2,30.19,NE,38,17.0,27.0,36,0.00,,,0.00,VWS V12.08,2013-05-03 20:42:00,
2013-05-03 15:47:00,47.5,23.2,30.19,North,349,12.0,27.0,38,0.00,,,0.00,VWS V12.08,2013-05-03 20:47:00,
2013-05-03 15:52:00,47.9,23.5,30.19,NE,43,15.0,27.0,38,0.00,,,0.00,VWS V12.08,2013-05-03 20:52:00,
2013-05-03 15:57:00,48.2,23.2,30.19,NNW,343,21.0,27.0,37,0.00,,,0.00,VWS V12.08,2013-05-03 20:57:00,
2013-05-03 16:02:00,48.2,22.5,30.18,NNW,332,14.0,21.0,36,0.00,,,0.00,VWS V12.08,2013-05-03 21:02:00,
2013-05-03 16:07:00,47.9,22.2,30.18,NNE,22,17.0,22.0,36,0.00,,,0.00,VWS V12.08,2013-05-03 21:07:00,
2013-05-03 16:12:00,48.0,23.0,30.18,NNE,13,25.0,25.0,37,0.00,,,0.00,VWS V12.08,2013-05-03 21:12:00,
2013-05-03 16:17:00,48.0,23.0,30.17,NE,34,21.0,25.0,37,0.00,,,0.00,VWS V12.08,2013-05-03 21:17:00,
2013-05-03 16:22:00,48.2,22.5,30.17,NE,41,11.0,26.0,36,0.00,,,0.00,VWS V12.08,2013-05-03 21:22:00,
2013-05-03 16:27:00,48.7,23.0,30.17,NNE,26,7.0,26.0,36,0.00,,,0.00,VWS V12.08,2013-05-03 21:27:00,
2013-05-03 16:32:00,48.7,22.3,30.17,North,11,18.0,24.0,35,0.00,,,0.00,VWS V12.08,2013-05-03 21:32:00,
2013-05-03 16:37:00,48.3,21.9,30.16,NE,34,20.0,31.0,35,0.00,,,0.00,VWS V12.08,2013-05-03 21:37:00,
2013-05-03 16:42:00,48.2,21.9,30.16,NE,53,16.0,31.0,35,0.00,,,0.00,VWS V12.08,2013-05-03 21:42:00,
2013-05-03 16:47:00,48.2,21.2,30.16,NE,48,22.0,31.0,34,0.00,,,0.00,VWS V12.08,2013-05-03 21:47:00,
2013-05-03 16:52:00,48.0,22.3,30.16,NNE,22,21.0,31.0,36,0.00,,,0.00,VWS V12.08,2013-05-03 21:52:00,
2013-05-03 16:57:00,48.1,21.1,30.16,NNE,27,20.0,31.0,34,0.00,,,0.00,VWS V12.08,2013-05-03 21:57:00,
2013-05-03 17:02:00,48.0,21.0,30.16,NNE,23,15.0,27.0,34,0.00,,,0.00,VWS V12.08,2013-05-03 22:02:00,
2013-05-03 17:07:00,48.0,21.7,30.16,NNE,23,14.0,27.0,35,0.00,,,0.00,VWS V12.08,2013-05-03 22:07:00,
2013-05-03 17:12:00,48.1,22.4,30.16,NE,34,13.0,27.0,36,0.00,,,0.00,VWS V12.08,2013-05-03 22:12:00,
2013-05-03 17:17:00,48.2,23.8,30.16,ENE,63,17.0,27.0,38,0.00,,,0.00,VWS V12.08,2013-05-03 22:17:00,
2013-05-03 17:22:00,48.1,22.4,30.16,NE,41,7.0,27.0,36,0.00,,,0.00,VWS V12.08,2013-05-03 22:22:00,
2013-05-03 17:27:00,47.9,22.2,30.16,NNW,332,14.0,27.0,36,0.00,,,0.00,VWS V12.08,2013-05-03 22:27:00,
2013-05-03 17:32:00,47.9,22.9,30.16,NNW,335,10.0,19.0,37,0.00,,,0.00,VWS V12.08,2013-05-03 22:32:00,
2013-05-03 17:37:00,47.7,22.1,30.16,North,350,11.0,27.0,36,0.00,,,0.00,VWS V12.08,2013-05-03 22:37:00,
2013-05-03 17:42:00,47.6,22.0,30.16,NNW,339,7.0,27.0,36,0.00,,,0.00,VWS V12.08,2013-05-03 22:42:00,
2013-05-03 17:47:00,47.5,22.5,30.16,NW,322,16.0,27.0,37,0.00,,,0.00,VWS V12.08,2013-05-03 22:47:00,
2013-05-03 17:52:00,47.5,22.5,30.16,ENE,65,17.0,28.0,37,0.00,,,0.00,VWS V12.08,2013-05-03 22:52:00,
2013-05-03 17:57:00,47.4,22.5,30.17,NE,35,15.0,28.0,37,0.00,,,0.00,VWS V12.08,2013-05-03 22:57:00,
2013-05-03 18:02:00,47.3,22.4,30.17,NW,325,12.0,22.0,37,0.00,,,0.00,VWS V12.08,2013-05-03 23:02:00,
2013-05-03 18:07:00,47.3,22.4,30.17,NNE,22,9.0,22.0,37,0.00,,,0.00,VWS V12.08,2013-05-03 23:07:00,
2013-05-03 18:12:00,46.8,23.2,30.17,NNE,28,17.0,27.0,39,0.00,,,0.00,VWS V12.08,2013-05-03 23:12:00,
2013-05-03 18:17:00,46.6,23.6,30.17,ENE,58,14.0,27.0,40,0.00,,,0.00,VWS V12.08,2013-05-03 23:17:00,
2013-05-03 18:22:00,46.2,23.2,30.17,NNE,22,18.0,27.0,40,0.00,,,0.00,VWS V12.08,2013-05-03 23:22:00,
2013-05-03 18:27:00,45.9,24.1,30.17,NE,45,13.0,27.0,42,0.00,,,0.00,VWS V12.08,2013-05-03 23:27:00,
2013-05-03 18:32:00,45.9,24.1,30.17,NNW,333,11.0,17.0,42,0.00,,,0.00,VWS V12.08,2013-05-03 23:32:00,
2013-05-03 18:37:00,45.8,23.5,30.17,NE,43,20.0,22.0,41,0.00,,,0.00,VWS V12.08,2013-05-03 23:37:00,
2013-05-03 18:42:00,45.6,23.9,30.17,NNE,26,21.0,24.0,42,0.00,,,0.00,VWS V12.08,2013-05-03 23:42:00,
2013-05-03 18:47:00,45.3,23.6,30.17,NE,34,19.0,26.0,42,0.00,,,0.00,VWS V12.08,2013-05-03 23:47:00,
2013-05-03 18:52:00,45.2,24.0,30.17,NE,50,14.0,26.0,43,0.00,,,0.00,VWS V12.08,2013-05-03 23:52:00,
2013-05-03 18:57:00,45.0,23.9,30.16,NE,43,14.0,27.0,43,0.00,,,0.00,VWS V12.08,2013-05-03 23:57:00,
2013-05-03 19:02:00,45.0,24.4,30.16,NNE,27,11.0,16.0,44,0.00,,,0.00,VWS V12.08,2013-05-04 00:02:00,
2013-05-03 19:07:00,44.8,23.7,30.16,NNE,25,22.0,23.0,43,0.00,,,0.00,VWS V12.08,2013-05-04 00:07:00,
2013-05-03 19:12:00,44.7,24.1,30.16,NE,38,16.0,23.0,44,0.00,,,0.00,VWS V12.08,2013-05-04 00:12:00,
2013-05-03 19:17:00,44.5,24.0,30.16,NE,40,9.0,23.0,44,0.00,,,0.00,VWS V12.08,2013-05-04 00:17:00,
2013-05-03 19:22:00,44.5,24.0,30.17,NE,50,21.0,23.0,44,0.00,,,0.00,VWS V12.08,2013-05-04 00:22:00,
2013-05-03 19:27:00,44.5,24.0,30.16,NW,325,11.0,24.0,44,0.00,,,0.00,VWS V12.08,2013-05-04 00:27:00,
2013-05-03 19:32:00,44.4,24.4,30.17,NNE,23,12.0,18.0,45,0.00,,,0.00,VWS V12.08,2013-05-04 00:32:00,
2013-05-03 19:37:00,44.4,24.4,30.17,West,273,6.0,20.0,45,0.00,,,0.00,VWS V12.08,2013-05-04 00:37:00,
2013-05-03 19:42:00,44.2,24.8,30.17,NE,39,11.0,20.0,46,0.00,,,0.00,VWS V12.08,2013-05-04 00:42:00,
2013-05-03 19:47:00,44.1,24.7,30.17,NE,39,18.0,21.0,46,0.00,,,0.00,VWS V12.08,2013-05-04 00:47:00,
2013-05-03 19:52:00,43.8,24.9,30.17,NE,38,15.0,24.0,47,0.00,,,0.00,VWS V12.08,2013-05-04 00:52:00,
2013-05-03 19:57:00,43.6,24.7,30.17,NE,47,12.0,24.0,47,0.00,,,0.00,VWS V12.08,2013-05-04 00:57:00,
2013-05-03 20:02:00,43.5,25.1,30.17,NE,46,12.0,17.0,48,0.00,,,0.00,VWS V12.08,2013-05-04 01:02:00,
2013-05-03 20:07:00,43.3,24.9,30.17,NNE,13,18.0,22.0,48,0.00,,,0.00,VWS V12.08,2013-05-04 01:07:00,
2013-05-03 20:12:00,43.1,25.3,30.17,NE,46,15.0,26.0,49,0.00,,,0.00,VWS V12.08,2013-05-04 01:12:00,
2013-05-03 20:17:00,42.8,25.9,30.17,ENE,57,15.0,26.0,51,0.00,,,0.00,VWS V12.08,2013-05-04 01:17:00,
2013-05-03 20:22:00,42.7,25.9,30.17,NNE,31,17.0,26.0,51,0.00,,,0.00,VWS V12.08,2013-05-04 01:22:00,
2013-05-03 20:27:00,42.6,25.8,30.17,NNE,22,23.0,26.0,51,0.00,,,0.00,VWS V12.08,2013-05-04 01:27:00,
2013-05-03 20:32:00,42.5,26.6,30.17,NNE,28,13.0,19.0,53,0.00,,,0.00,VWS V12.08,2013-05-04 01:32:00,
2013-05-03 20:37:00,42.4,26.5,30.17,NE,35,10.0,19.0,53,0.00,,,0.00,VWS V12.08,2013-05-04 01:37:00,
2013-05-03 20:42:00,42.3,26.4,30.16,NNE,17,7.0,19.0,53,0.00,,,0.00,VWS V12.08,2013-05-04 01:42:00,
2013-05-03 20:47:00,42.1,26.2,30.16,NNE,15,4.0,21.0,53,0.00,,,0.00,VWS V12.08,2013-05-04 01:47:00,
2013-05-03 20:52:00,41.9,26.0,30.16,NE,38,22.0,26.0,53,0.00,,,0.00,VWS V12.08,2013-05-04 01:52:00,
2013-05-03 20:57:00,41.7,26.7,30.16,NNE,32,12.0,26.0,55,0.00,,,0.00,VWS V12.08,2013-05-04 01:57:00,
2013-05-03 21:02:00,41.6,26.6,30.16,NNE,15,18.0,23.0,55,0.00,,,0.00,VWS V12.08,2013-05-04 02:02:00,
2013-05-03 21:07:00,41.7,26.7,30.16,North,11,11.0,23.0,55,0.00,,,0.00,VWS V12.08,2013-05-04 02:07:00,
2013-05-03 21:12:00,41.6,26.6,30.17,NE,53,14.0,24.0,55,0.00,,,0.00,VWS V12.08,2013-05-04 02:12:00,
2013-05-03 21:17:00,41.6,26.6,30.17,NE,55,19.0,25.0,55,0.00,,,0.00,VWS V12.08,2013-05-04 02:17:00,
2013-05-03 21:22:00,41.5,27.0,30.17,NNE,28,15.0,25.0,56,0.00,,,0.00,VWS V12.08,2013-05-04 02:22:00,
2013-05-03 21:27:00,41.3,26.8,30.17,NE,55,17.0,25.0,56,0.00,,,0.00,VWS V12.08,2013-05-04 02:27:00,
2013-05-03 21:32:00,41.2,27.1,30.17,NNE,18,14.0,21.0,57,0.00,,,0.00,VWS V12.08,2013-05-04 02:32:00,
2013-05-03 21:37:00,41.1,27.0,30.17,NE,38,17.0,21.0,57,0.00,,,0.00,VWS V12.08,2013-05-04 02:37:00,
2013-05-03 21:42:00,41.1,27.5,30.18,NE,50,15.0,21.0,58,0.00,,,0.00,VWS V12.08,2013-05-04 02:42:00,
2013-05-03 21:47:00,41.0,27.4,30.18,NE,43,13.0,21.0,58,0.00,,,0.00,VWS V12.08,2013-05-04 02:47:00,
2013-05-03 21:52:00,40.9,27.3,30.18,NNE,24,10.0,21.0,58,0.00,,,0.00,VWS V12.08,2013-05-04 02:52:00,
2013-05-03 21:57:00,40.9,27.3,30.18,NE,53,13.0,21.0,58,0.00,,,0.00,VWS V12.08,2013-05-04 02:57:00,
2013-05-03 22:02:00,40.8,27.2,30.18,NE,43,6.0,14.0,58,0.00,,,0.00,VWS V12.08,2013-05-04 03:02:00,
2013-05-03 22:07:00,40.8,27.2,30.18,NE,44,11.0,18.0,58,0.00,,,0.00,VWS V12.08,2013-05-04 03:07:00,
2013-05-03 22:12:00,40.8,27.2,30.18,NNE,24,13.0,18.0,58,0.00,,,0.00,VWS V12.08,2013-05-04 03:12:00,
2013-05-03 22:17:00,40.8,27.2,30.18,NNW,348,11.0,22.0,58,0.00,,,0.00,VWS V12.08,2013-05-04 03:17:00,
2013-05-03 22:22:00,40.8,27.2,30.18,WSW,253,2.0,22.0,58,0.00,,,0.00,VWS V12.08,2013-05-04 03:22:00,
2013-05-03 22:27:00,40.8,27.6,30.18,NE,49,15.0,22.0,59,0.00,,,0.00,VWS V12.08,2013-05-04 03:27:00,
2013-05-03 22:32:00,40.7,27.5,30.18,NE,44,15.0,21.0,59,0.00,,,0.00,VWS V12.08,2013-05-04 03:32:00,
2013-05-03 22:37:00,40.7,27.5,30.18,North,5,16.0,23.0,59,0.00,,,0.00,VWS V12.08,2013-05-04 03:37:00,
2013-05-03 22:42:00,40.6,27.4,30.18,NNE,28,8.0,23.0,59,0.00,,,0.00,VWS V12.08,2013-05-04 03:42:00,
2013-05-03 22:47:00,40.6,27.0,30.18,ENE,65,4.0,23.0,58,0.00,,,0.00,VWS V12.08,2013-05-04 03:47:00,
2013-05-03 22:52:00,40.6,27.4,30.18,NNE,24,5.0,23.0,59,0.00,,,0.00,VWS V12.08,2013-05-04 03:52:00,
2013-05-03 22:57:00,40.5,27.3,30.18,NE,43,10.0,23.0,59,0.00,,,0.00,VWS V12.08,2013-05-04 03:57:00,
2013-05-03 23:01:00,40.4,27.6,30.18,ENE,70,10.0,10.0,60,0.00,,,0.00,VWS V12.08,2013-05-04 04:01:00,
2013-05-03 23:06:00,40.4,27.6,30.18,NNE,22,20.0,20.0,60,0.00,,,0.00,VWS V12.08,2013-05-04 04:06:00,
2013-05-03 23:11:00,40.3,27.5,30.18,NNE,27,12.0,20.0,60,0.00,,,0.00,VWS V12.08,2013-05-04 04:11:00,
2013-05-03 23:16:00,40.4,28.0,30.18,ENE,59,15.0,20.0,61,0.00,,,0.00,VWS V12.08,2013-05-04 04:16:00,
2013-05-03 23:21:00,40.3,28.3,30.18,ENE,62,13.0,21.0,62,0.00,,,0.00,VWS V12.08,2013-05-04 04:21:00,
2013-05-03 23:26:00,40.1,28.5,30.18,NE,38,10.0,22.0,63,0.00,,,0.00,VWS V12.08,2013-05-04 04:26:00,
2013-05-03 23:31:00,40.1,28.9,30.17,NNW,346,9.0,15.0,64,0.00,,,0.00,VWS V12.08,2013-05-04 04:31:00,
2013-05-03 23:36:00,40.0,28.8,30.17,NNE,15,11.0,21.0,64,0.00,,,0.00,VWS V12.08,2013-05-04 04:36:00,
2013-05-03 23:41:00,39.9,29.1,30.17,NNW,348,6.0,21.0,65,0.00,,,0.00,VWS V12.08,2013-05-04 04:41:00,
2013-05-03 23:46:00,38.9,31.3,30.17,ENE,59,10.0,21.0,74,0.00,,,0.00,VWS V12.08,2013-05-04 04:46:00,
2013-05-03 23:51:00,38.5,31.6,30.17,ENE,72,4.0,21.0,76,0.00,,,0.00,VWS V12.08,2013-05-04 04:51:00,
2013-05-03 23:56:00,38.2,31.6,30.16,NNE,23,10.0,21.0,77,0.00,,,0.00,VWS V12.08,2013-05-04 04:56:00,